{"data":{"norad_id":58798,"epoch":"2026-05-24T23:28:44.414112Z","epoch_age_seconds":76796,"freshness":"FRESH","line1":"1 58798U 24012M   26144.97829183 -.00001388  00000+0 -40907-4 0  9995","line2":"2 58798  43.0034  94.3805 0001175 283.1954  76.8767 15.27593441132905","mean_motion":15.27593441,"eccentricity":0.0001175,"inclination_deg":43.0034,"raan_deg":94.3805,"arg_perigee_deg":283.1954,"mean_anomaly_deg":76.8767,"bstar":-4.0907e-5,"rev_number":13290,"period_min":94.265919278715,"perigee_km":482.20266450811,"apogee_km":483.81503378266,"semimajor_km":6861.1458491454,"source":"CELESTRAK","updated_at":"2026-05-25T13:38:18.750603Z"}}